FW6296 Weather Reports


Display with metric or nautical units.
time (UTC)temp
F
wind
direction
speed
MPH
gust
MPH
rain 1hr
in
rain 24hr
in
rain mn
in
humidity
%
barometer
mb
20260507130016 47 323 2.0 6.0 0.00 0.00 0.00 63 1015.8
20260507125016 47 352 1.0 4.0 0.00 0.00 0.00 63 1015.6
20260507124037 46 54 1.0 4.0 0.00 0.00 0.00 66 1015.6
20260507123017 45 56 0.0 3.0 0.00 0.00 0.00 66 1015.6
20260507122016 45 27 1.0 4.0 0.00 0.00 0.00 66 1015.5
20260507121016 43 29 0.0 5.0 0.00 0.00 0.00 70 1015.5
20260507120017 41 117 0.0 2.0 0.00 0.00 0.00 77 1015.5
20260507115017 39 105 0.0 1.0 0.00 0.00 0.00 81 1015.4
20260507114058 37 104 0.0 2.0 0.00 0.00 0.00 83 1015.3
20260507113037 36 124 0.0 1.0 0.00 0.00 0.00 84 1015.3
20260507112020 34 104 0.0 1.0 0.00 0.00 0.00 87 1015.2
20260507111040 33 96 0.0 2.0 0.00 0.00 0.00 90 1015.2
20260507110020 32 0.0 0.0 0.00 0.00 0.00 92 1015.1
20260507105021 32 0.0 0.0 0.00 0.00 0.00 92 1015.1
20260507104021 32 112 0.0 1.0 0.00 0.00 0.00 92 1015.2
20260507103041 32 23 0.0 0.0 0.00 0.00 0.00 92 1015.2
20260507102021 32 0.0 0.0 0.00 0.00 0.00 95 1015.3
20260507101022 32 112 0.0 0.0 0.00 0.00 0.00 95 1015.2
20260507100022 31 0.0 0.0 0.00 0.00 0.00 95 1015.2
20260507095022 31 0.0 0.0 0.00 0.00 0.00 95 1015.3
20260507094022 31 0.0 0.0 0.00 0.00 0.00 95 1015.3
20260507093022 32 0.0 0.0 0.00 0.00 0.00 94 1015.3
20260507092022 32 0.0 0.0 0.00 0.00 0.00 93 1015.4
20260507091023 33 0.0 0.0 0.00 0.00 0.00 93 1015.4
20260507090103 33 0.0 0.0 0.00 0.00 0.00 92 1015.5
20260507085023 33 0.0 0.0 0.00 0.00 0.00 92 1015.4
20260507084023 33 0.0 0.0 0.00 0.00 0.00 91 1015.4
20260507083023 34 0.0 0.0 0.00 0.00 0.00 90 1015.5
20260507082023 34 0.0 0.0 0.00 0.00 0.00 90 1015.4
20260507081024 34 0.0 0.0 0.00 0.00 0.00 89 1015.4
20260507080024 34 0.0 0.0 0.00 0.00 0.00 91 1015.4
20260507075024 34 117 0.0 1.0 0.00 0.00 0.00 90 1015.3
20260507074024 34 0.0 0.0 0.00 0.00 0.00 90 1015.3
20260507073024 34 0.0 0.0 0.00 0.00 0.00 90 1015.2
20260507072024 34 0.0 0.0 0.00 0.00 0.00 89 1015.4
20260507071025 35 110 0.0 1.0 0.00 0.00 0.00 89 1015.4
20260507070025 35 0.0 0.0 0.00 0.00 0.00 87 1015.4
20260507065025 35 0.0 0.0 0.00 0.00 0.00 86 1015.5
20260507064026 35 0.0 0.0 0.00 0.00 0.00 86 1015.6
20260507063027 34 0.0 0.0 0.00 0.00 0.00 88 1015.6
20260507062025 35 0.0 0.0 0.00 0.00 0.00 88 1015.6
20260507061026 35 118 0.0 1.0 0.00 0.00 0.00 85 1015.6
20260507060026 35 0.0 0.0 0.00 0.00 0.00 85 1015.7
20260507055106 36 116 0.0 1.0 0.00 0.00 0.00 85 1015.7
20260507054027 36 0.0 0.0 0.00 0.00 0.00 84 1015.6
20260507053026 36 0.0 0.0 0.00 0.00 0.00 84 1015.6
20260507052107 36 0.0 0.0 0.00 0.00 0.00 81 1015.7
20260507051047 37 0.0 0.0 0.00 0.00 0.00 81 1015.7
20260507050027 38 56 0.0 1.0 0.00 0.00 0.00 78 1015.7
20260507045027 38 0.0 0.0 0.00 0.00 0.00 74 1015.7
20260507044027 38 84 0.0 1.0 0.00 0.00 0.00 74 1015.6
20260507043028 38 289 0.0 2.0 0.00 0.00 0.00 75 1015.6
20260507042028 38 56 0.0 0.0 0.00 0.00 0.00 74 1015.6
20260507041048 39 62 0.0 1.0 0.00 0.00 0.00 72 1015.7
20260507040028 41 82 0.0 1.0 0.00 0.00 0.00 72 1015.6
20260507035048 42 0.0 0.0 0.00 0.00 0.00 65 1015.6
20260507034029 43 17 2.0 4.0 0.00 0.00 0.00 62 1015.7
20260507033017 43 348 2.0 5.0 0.00 0.00 0.00 61 1015.7
20260507032017 43 320 0.0 5.0 0.00 0.00 0.00 60 1015.7
20260507031017 45 37 1.0 3.0 0.00 0.00 0.00 57 1015.6
20260507030017 45 18 1.0 4.0 0.00 0.00 0.00 56 1015.7
20260507025017 46 13 1.0 4.0 0.00 0.00 0.00 55 1015.6
20260507024018 46 360 1.0 5.0 0.00 0.00 0.00 55 1015.5
20260507023018 46 357 1.0 4.0 0.00 0.00 0.00 54 1015.4
20260507022036 47 325 1.0 3.0 0.00 0.00 0.00 53 1015.3
20260507021036 47 327 1.0 3.0 0.00 0.00 0.00 52 1015.1
20260507020036 48 325 2.0 6.0 0.00 0.00 0.00 51 1015.0
20260507015016 48 334 2.0 5.0 0.00 0.00 0.00 50 1014.8
20260507014017 49 327 2.0 5.0 0.00 0.00 0.00 50 1014.7
20260507013016 49 332 3.0 6.0 0.00 0.00 0.00 48 1014.7
20260507012016 50 330 2.0 5.0 0.00 0.00 0.00 49 1014.6
20260507011017 50 331 3.0 5.0 0.00 0.00 0.00 48 1014.7
20260507010017 51 331 3.0 6.0 0.00 0.00 0.00 47 1014.5
20260507005017 51 306 5.0 10.0 0.00 0.00 0.00 46 1014.5
20260507004017 52 307 3.0 8.0 0.00 0.00 0.00 46 1014.5
20260507003017 52 309 4.0 9.0 0.00 0.00 0.00 45 1014.4
20260507002016 53 310 3.0 6.0 0.00 0.00 0.00 45 1014.3
20260507001016 53 311 4.0 8.0 0.00 0.00 0.00 44 1014.2
20260507000016 54 318 4.0 8.0 0.00 0.00 0.00 44 1014.0
20260506235016 54 314 3.0 7.0 0.00 0.00 0.00 44 1014.0
20260506234015 54 316 4.0 10.0 0.00 0.00 0.00 43 1013.9
20260506233015 55 315 3.0 8.0 0.00 0.00 0.00 43 1013.9
20260506232016 56 313 5.0 9.0 0.00 0.00 0.00 41 1013.8
20260506231016 55 321 4.0 9.0 0.00 0.00 0.00 42 1013.8
20260506230016 55 316 5.0 10.0 0.00 0.00 0.00 42 1013.6
20260506225016 55 314 4.0 7.0 0.00 0.00 0.00 42 1013.5
20260506224016 55 320 4.0 9.0 0.00 0.00 0.00 43 1013.6
20260506223017 56 313 5.0 9.0 0.00 0.00 0.00 42 1013.6
20260506222017 56 312 4.0 10.0 0.00 0.00 0.00 43 1013.5
20260506221017 56 310 5.0 9.0 0.00 0.00 0.00 42 1013.5
20260506220017 56 318 4.0 8.0 0.00 0.00 0.00 42 1013.4
20260506215037 57 300 5.0 9.0 0.00 0.00 0.00 41 1013.5
20260506214017 57 303 5.0 9.0 0.00 0.00 0.00 41 1013.4
20260506213018 56 312 4.0 8.0 0.00 0.00 0.00 42 1013.3
20260506212018 56 315 5.0 11.0 0.00 0.00 0.00 42 1013.3
20260506211018 57 311 6.0 11.0 0.00 0.00 0.00 40 1013.3
20260506210018 58 305 7.0 14.0 0.00 0.00 0.00 40 1013.4
20260506205019 57 307 5.0 8.0 0.00 0.00 0.00 41 1013.4
20260506204016 58 304 5.0 10.0 0.00 0.00 0.00 40 1013.4
20260506203016 57 304 5.0 13.0 0.00 0.00 0.00 41 1013.5
20260506202016 57 301 5.0 9.0 0.00 0.00 0.00 41 1013.5
20260506201016 57 305 5.0 11.0 0.00 0.00 0.00 41 1013.7
20260506200036 56 306 5.0 9.0 0.00 0.00 0.00 42 1013.8
20260506195037 56 312 4.0 8.0 0.00 0.00 0.00 43 1013.9
20260506194017 56 306 6.0 11.0 0.00 0.00 0.00 44 1014.0
20260506193017 56 305 6.0 9.0 0.00 0.00 0.00 43 1014.0
20260506192017 56 304 4.0 8.0 0.00 0.00 0.00 44 1014.0
20260506191017 55 312 5.0 11.0 0.00 0.00 0.00 44 1014.1
20260506190018 55 310 4.0 8.0 0.00 0.00 0.00 46 1014.0
20260506185019 55 309 3.0 7.0 0.00 0.00 0.00 47 1014.1
20260506184018 56 308 4.0 9.0 0.00 0.00 0.00 46 1014.2
20260506183018 56 308 5.0 9.0 0.00 0.00 0.00 45 1014.0
20260506182018 56 305 4.0 9.0 0.00 0.00 0.00 45 1014.0
20260506181021 56 309 3.0 8.0 0.00 0.00 0.00 46 1014.1
20260506180015 55 308 4.0 9.0 0.00 0.00 0.00 46 1014.1
20260506175016 55 306 3.0 7.0 0.00 0.00 0.00 45 1014.2
20260506174016 55 312 3.0 7.0 0.00 0.00 0.00 43 1014.2
20260506173036 56 312 4.0 8.0 0.00 0.00 0.00 42 1014.3
20260506172016 57 311 4.0 10.0 0.00 0.00 0.00 42 1014.3
20260506171016 56 313 3.0 8.0 0.00 0.00 0.00 43 1014.3
20260506170016 56 307 3.0 8.0 0.00 0.00 0.00 44 1014.2
20260506165016 56 309 4.0 10.0 0.00 0.00 0.00 43 1014.1
20260506164017 55 316 3.0 7.0 0.00 0.00 0.00 42 1014.1
20260506163017 55 310 4.0 8.0 0.00 0.00 0.00 42 1014.1
20260506162017 55 316 3.0 7.0 0.00 0.00 0.00 42 1014.1
20260506161017 55 330 3.0 7.0 0.00 0.00 0.00 41 1014.0
20260506160017 54 318 3.0 8.0 0.00 0.00 0.00 44 1014.0
20260506155018 55 309 3.0 5.0 0.00 0.00 0.00 44 1014.0
20260506154018 55 313 3.0 7.0 0.00 0.00 0.00 45 1014.0
20260506153018 54 310 2.0 4.0 0.00 0.00 0.00 47 1014.0
20260506152038 54 312 3.0 6.0 0.00 0.00 0.00 46 1014.1
20260506151018 54 308 1.0 4.0 0.00 0.00 0.00 49 1014.2
20260506150016 53 303 1.0 5.0 0.00 0.00 0.00 48 1014.3
20260506145015 53 308 1.0 4.0 0.00 0.00 0.00 50 1014.2
20260506144016 53 304 1.0 3.0 0.00 0.00 0.00 51 1014.2
20260506143016 53 287 1.0 5.0 0.00 0.00 0.00 51 1014.2
20260506142016 52 307 0.0 2.0 0.00 0.00 0.00 54 1014.3
20260506141016 52 314 0.0 4.0 0.00 0.00 0.00 55 1014.3
20260506140016 51 321 0.0 2.0 0.00 0.00 0.00 57 1014.3
20260506135017 50 66 1.0 2.0 0.00 0.00 0.00 57 1014.1
20260506134028 49 53 0.0 1.0 0.00 0.00 0.00 62 1014.0
20260506133027 48 348 0.0 1.0 0.00 0.01 0.00 64 1013.7
20260506132028 47 339 1.0 2.0 0.00 0.01 0.00 66 1013.6
20260506131028 47 349 0.0 1.0 0.00 0.03 0.00 66 1013.4